When you browse on this site, cookies collect data to enhance your experience and personalize the content and advertising you see.
Visit our Privacy Policy to learn more. By continuing to use the site, you agree to this use of cookies and data.
  • In United Kingdom
  • List of Countries
  • For 7 days
  • Water Temperature
  • Weather Map
  • Weather Widgets
  • user-avatar
    Login

    Hourly Weather Bangor

    Today, 9 April, Thursday

    Time Temperature Precipitation Wind Pressure Humidity
    00:00 +10°C° 0 mm 2 mps 750 mmHg 88%
    01:00 +10°C° 0 mm 2 mps 750 mmHg 89%
    02:00 +9°C° 0 mm 2 mps 750 mmHg 90%
    03:00 +9°C° 0 mm 2 mps 750 mmHg 91%
    04:00 +9°C° 0 mm 2 mps 750 mmHg 91%
    05:00 +8°C° 0 mm 2 mps 750 mmHg 90%
    06:00 +8°C° 0 mm 2 mps 750 mmHg 91%
    07:00 +10°C° 0 mm 2 mps 750 mmHg 87%
    08:00 +13°C° 0 mm 2 mps 751 mmHg 83%
    09:00 +14°C° 0 mm 2 mps 751 mmHg 79%
    10:00 +15°C° 0 mm 2 mps 751 mmHg 76%
    11:00 +17°C° 0 mm 3 mps 751 mmHg 73%
    12:00 +18°C° 0 mm 3 mps 751 mmHg 69%
    13:00 +19°C° 0 mm 3 mps 751 mmHg 68%
    14:00 +19°C° 0 mm 3 mps 751 mmHg 68%
    15:00 +19°C° 0 mm 3 mps 750 mmHg 67%
    16:00 +19°C° 0.1 mm 2 mps 750 mmHg 72%
    17:00 +18°C° 0.1 mm 2 mps 750 mmHg 77%
    18:00 +17°C° 0.1 mm 2 mps 750 mmHg 82%
    19:00 +16°C° 0 mm 2 mps 750 mmHg 84%
    20:00 +14°C° 0 mm 2 mps 751 mmHg 87%
    21:00 +13°C° 0 mm 2 mps 751 mmHg 90%
    22:00 +12°C° 0 mm 1 mps 751 mmHg 90%
    23:00 +12°C° 0 mm 1 mps 751 mmHg 90%

    Tomorrow, 10 April, Friday

    Time Temperature Precipitation Wind Pressure Humidity
    00:00 +11°C° 0 mm 1 mps 751 mmHg 91%
    01:00 +9°C° 0 mm 2 mps 751 mmHg 90%
    02:00 +9°C° 0 mm 2 mps 750 mmHg 89%
    03:00 +8°C° 0 mm 2 mps 750 mmHg 88%
    04:00 +8°C° 0 mm 2 mps 750 mmHg 87%
    05:00 +8°C° 0 mm 2 mps 750 mmHg 86%
    06:00 +8°C° 0 mm 2 mps 750 mmHg 85%
    07:00 +9°C° 0 mm 2 mps 750 mmHg 82%
    08:00 +12°C° 0 mm 2 mps 750 mmHg 79%
    09:00 +14°C° 0 mm 2 mps 750 mmHg 76%
    10:00 +15°C° 0 mm 2 mps 750 mmHg 74%
    11:00 +17°C° 0 mm 2 mps 750 mmHg 71%
    12:00 +18°C° 0 mm 2 mps 750 mmHg 69%
    13:00 +19°C° 0 mm 2 mps 750 mmHg 68%
    14:00 +19°C° 0 mm 2 mps 750 mmHg 67%
    15:00 +20°C° 0 mm 3 mps 749 mmHg 66%
    16:00 +19°C° 0 mm 2 mps 749 mmHg 71%
    17:00 +18°C° 0 mm 2 mps 749 mmHg 76%
    18:00 +17°C° 0 mm 2 mps 749 mmHg 81%
    19:00 +15°C° 0 mm 2 mps 749 mmHg 84%
    20:00 +14°C° 0 mm 1 mps 749 mmHg 87%
    21:00 +12°C° 0 mm 1 mps 750 mmHg 90%
    22:00 +12°C° 0 mm 1 mps 749 mmHg 90%
    23:00 +11°C° 0 mm 1 mps 749 mmHg 89%

    Day after tomorrow, 11 April, Saturday

    Time Temperature Precipitation Wind Pressure Humidity
    00:00 +11°C° 0 mm 1 mps 749 mmHg 88%
    01:00 +10°C° 0 mm 1 mps 749 mmHg 88%
    02:00 +10°C° 0 mm 1 mps 749 mmHg 87%
    03:00 +9°C° 0 mm 1 mps 749 mmHg 87%
    04:00 +9°C° 0 mm 0 mps 749 mmHg 87%
    05:00 +9°C° 0 mm 0 mps 749 mmHg 87%
    06:00 +9°C° 0 mm 0 mps 749 mmHg 86%
    07:00 +11°C° 0 mm 0 mps 749 mmHg 82%
    08:00 +14°C° 0 mm 1 mps 749 mmHg 78%
    09:00 +16°C° 0 mm 1 mps 749 mmHg 74%
    10:00 +18°C° 0.2 mm 1 mps 749 mmHg 70%
    11:00 +18°C° 0.2 mm 2 mps 749 mmHg 67%
    12:00 +19°C° 0.2 mm 2 mps 749 mmHg 63%
    13:00 +20°C° 0.1 mm 2 mps 749 mmHg 62%
    14:00 +20°C° 0.1 mm 3 mps 749 mmHg 61%
    15:00 +20°C° 0.1 mm 3 mps 749 mmHg 61%
    16:00 +19°C° 0.1 mm 3 mps 748 mmHg 67%
    17:00 +17°C° 0.1 mm 2 mps 748 mmHg 73%
    18:00 +16°C° 0.1 mm 2 mps 748 mmHg 80%
    19:00 +15°C° 0 mm 2 mps 748 mmHg 83%
    20:00 +13°C° 0 mm 2 mps 748 mmHg 85%
    21:00 +12°C° 0 mm 1 mps 748 mmHg 88%
    22:00 +11°C° 0 mm 1 mps 748 mmHg 89%
    23:00 +11°C° 0 mm 1 mps 748 mmHg 89%

    12 April, Sunday

    Time Temperature Precipitation Wind Pressure Humidity
    00:00 +9°C° 0 mm 0 mps 747 mmHg 90%
    01:00 +9°C° 0 mm 0 mps 747 mmHg 90%
    02:00 +8°C° 0 mm 0 mps 746 mmHg 91%
    03:00 +8°C° 0 mm 0 mps 746 mmHg 91%
    04:00 +8°C° 0 mm 0 mps 745 mmHg 92%
    05:00 +8°C° 0 mm 0 mps 745 mmHg 92%
    06:00 +8°C° 0 mm 0 mps 744 mmHg 93%
    07:00 +11°C° 0 mm 1 mps 744 mmHg 89%
    08:00 +12°C° 0 mm 1 mps 744 mmHg 85%
    09:00 +14°C° 0 mm 1 mps 743 mmHg 81%
    10:00 +15°C° 0.3 mm 2 mps 743 mmHg 77%
    11:00 +16°C° 0.3 mm 2 mps 742 mmHg 73%
    12:00 +17°C° 0.3 mm 2 mps 742 mmHg 69%
    13:00 +18°C° 0.7 mm 2 mps 741 mmHg 68%
    14:00 +18°C° 0.7 mm 2 mps 741 mmHg 67%
    15:00 +18°C° 0.7 mm 2 mps 740 mmHg 66%
    16:00 +17°C° 0.5 mm 2 mps 740 mmHg 71%
    17:00 +16°C° 0.5 mm 2 mps 739 mmHg 76%
    18:00 +15°C° 0.5 mm 2 mps 739 mmHg 81%
    19:00 +14°C° 0.1 mm 2 mps 739 mmHg 83%
    20:00 +13°C° 0.1 mm 2 mps 739 mmHg 86%
    21:00 +10°C° 0.1 mm 2 mps 739 mmHg 89%
    22:00 +10°C° 0 mm 2 mps 740 mmHg 91%
    23:00 +9°C° 0 mm 3 mps 740 mmHg 92%

    13 April, Monday

    Time Temperature Precipitation Wind Pressure Humidity
    00:00 +9°C° 0 mm 3 mps 740 mmHg 94%
    01:00 +8°C° 0 mm 4 mps 740 mmHg 94%
    02:00 +8°C° 0 mm 5 mps 741 mmHg 94%
    03:00 +8°C° 0 mm 6 mps 741 mmHg 94%
    04:00 +6°C° 0 mm 7 mps 741 mmHg 94%
    05:00 +6°C° 0 mm 8 mps 742 mmHg 94%
    06:00 +6°C° 0 mm 8 mps 743 mmHg 94%
    07:00 +6°C° 0 mm 9 mps 744 mmHg 91%
    08:00 +6°C° 0 mm 9 mps 744 mmHg 88%
    09:00 +6°C° 0 mm 10 mps 745 mmHg 86%
    10:00 +7°C° 0 mm 10 mps 745 mmHg 81%
    11:00 +8°C° 0 mm 10 mps 746 mmHg 76%
    12:00 +9°C° 0 mm 10 mps 747 mmHg 70%
    13:00 +9°C° 0 mm 10 mps 747 mmHg 71%
    14:00 +9°C° 0 mm 10 mps 747 mmHg 71%
    15:00 +8°C° 0 mm 10 mps 747 mmHg 71%
    16:00 +7°C° 0 mm 9 mps 748 mmHg 70%
    17:00 +6°C° 0 mm 9 mps 748 mmHg 69%
    18:00 +5°C° 0 mm 8 mps 748 mmHg 69%
    19:00 +4°C° 0 mm 8 mps 749 mmHg 70%
    20:00 +1°C° 0 mm 8 mps 749 mmHg 72%
    21:00 0°C° 0 mm 8 mps 750 mmHg 73%
    22:00 -1°C° 0 mm 7 mps 750 mmHg 78%
    23:00 -1°C° 0 mm 7 mps 750 mmHg 83%

    14 April, Tuesday

    Time Temperature Precipitation Wind Pressure Humidity
    00:00 -1°C° 0 mm 7 mps 750 mmHg 88%
    01:00 -1°C° 0 mm 7 mps 750 mmHg 85%
    02:00 -2°C° 0 mm 7 mps 750 mmHg 83%
    03:00 -2°C° 0 mm 7 mps 749 mmHg 81%
    04:00 -2°C° 0 mm 7 mps 749 mmHg 79%
    05:00 -2°C° 0 mm 7 mps 749 mmHg 77%
    06:00 -2°C° 0 mm 7 mps 749 mmHg 75%
    07:00 -1°C° 0 mm 8 mps 749 mmHg 71%
    08:00 +1°C° 0 mm 8 mps 749 mmHg 68%
    09:00 +4°C° 0 mm 8 mps 749 mmHg 65%
    10:00 +5°C° 0 mm 8 mps 749 mmHg 64%
    11:00 +6°C° 0 mm 9 mps 748 mmHg 62%
    12:00 +7°C° 0 mm 9 mps 748 mmHg 61%
    13:00 +8°C° 0 mm 9 mps 748 mmHg 61%
    14:00 +8°C° 0 mm 9 mps 747 mmHg 62%
    15:00 +8°C° 0 mm 9 mps 746 mmHg 62%
    16:00 +7°C° 0 mm 8 mps 746 mmHg 63%
    17:00 +7°C° 0 mm 8 mps 745 mmHg 65%
    18:00 +6°C° 0 mm 8 mps 745 mmHg 67%
    19:00 +4°C° 0 mm 7 mps 745 mmHg 68%
    20:00 +3°C° 0 mm 7 mps 745 mmHg 70%
    21:00 0°C° 0 mm 7 mps 745 mmHg 72%
    22:00 0°C° 0 mm 7 mps 745 mmHg 75%
    23:00 -1°C° 0 mm 6 mps 745 mmHg 79%
    Show more